Location: Half Hollow Hills
(40.8015°N, 73.3588°W)
Time: 16:40:59
(UTC-04:00)

OTV 5 (USA 277) - Visible Passes

Search period start: 24 June 2018 00:00
Search period end: 04 July 2018 00:00
Orbit: 313 x 320 km, 54.5° (Epoch: 21 June)

Date Brightness Start Highest point End Pass type
(mag) Time Alt. Az. Time Alt. Az. Time Alt. Az.
24 Jun ? 00:15:43 10° N 00:16:49 12° NNE 00:16:53 12° NNE visible
25 Jun ? 00:29:19 10° NNW 00:30:05 15° N 00:30:05 15° N visible
26 Jun ? 23:24:12 10° NNW 23:25:57 15° NNE 23:25:57 15° NNE visible
27 Jun ? 23:38:05 10° NNW 23:39:24 21° N 23:39:24 21° N visible
28 Jun ? 22:19:17 10° N 22:20:21 12° NNE 22:21:25 10° NE visible
28 Jun ? 23:52:19 10° NW 23:52:54 15° NW 23:52:54 15° NW visible
29 Jun ? 22:32:52 10° NNW 22:35:02 21° NNE 22:35:36 20° NE visible
30 Jun ? 22:46:56 10° NW 22:49:12 45° N 22:49:12 45° N visible
01 Jul ? 21:27:46 10° NNW 21:29:29 15° NNE 21:31:10 10° ENE visible
01 Jul ? 23:01:21 10° WNW 23:02:51 27° WNW 23:02:51 27° WNW visible
02 Jul ? 21:41:38 10° NNW 21:44:05 30° NE 21:45:42 17° E visible
02 Jul ? 23:16:24 10° W 23:16:33 11° W 23:16:33 11° W visible
03 Jul ? 21:55:52 10° NW 21:58:34 88° NE 21:59:27 38° SE visible
